Time,TemperatureF,DewpointF,PressureIn,WindDirection,WindDirectionDegrees,WindSpeedMPH,WindSpeedGustMPH,Humidity,HourlyPrecipIn,Conditions,Clouds,dailyrainin,SoftwareType,DateUTC
2013-03-06 00:00:00,28.9,24.7,29.81,WNW,301,11.5,11.5,84,0.00,-SN,,0.71,WeatherDisplay:10.37,2013-03-06 05:00:00,
2013-03-06 00:04:00,28.9,24.7,29.81,NW,326,10.4,10.4,84,0.00,-SN,,0.00,WeatherDisplay:10.37,2013-03-06 05:04:00,
2013-03-06 00:05:00,28.9,24.7,29.81,West,275,10.4,10.4,84,0.00,-SN,,0.00,WeatherDisplay:10.37,2013-03-06 05:05:00,
2013-03-06 00:10:00,28.8,24.6,29.81,NW,326,9.0,9.0,84,0.00,-SN,,0.00,WeatherDisplay:10.37,2013-03-06 05:10:00,
2013-03-06 00:15:00,28.7,24.5,29.81,North,355,9.2,9.2,84,0.00,-SN,,0.00,WeatherDisplay:10.37,2013-03-06 05:15:00,
2013-03-06 00:20:00,28.6,24.4,29.81,West,273,12.0,12.0,84,0.00,-SN,,0.00,WeatherDisplay:10.37,2013-03-06 05:20:00,
2013-03-06 00:25:00,28.5,24.6,29.81,North,7,10.0,10.0,85,0.00,-SN,,0.00,WeatherDisplay:10.37,2013-03-06 05:25:00,
2013-03-06 00:30:00,28.3,24.4,29.81,NW,311,14.0,14.0,85,0.00,-SN,,0.00,WeatherDisplay:10.37,2013-03-06 05:30:00,
2013-03-06 00:35:00,28.3,24.4,29.81,West,259,11.5,11.5,85,0.00,-SN,,0.00,WeatherDisplay:10.37,2013-03-06 05:35:00,
2013-03-06 00:40:00,28.2,24.3,29.81,NW,310,9.2,9.2,85,0.00,-SN,,0.00,WeatherDisplay:10.37,2013-03-06 05:40:00,
2013-03-06 00:45:00,28.1,24.5,29.81,WSW,240,10.4,10.4,86,0.00,-SN,,0.00,WeatherDisplay:10.37,2013-03-06 05:45:00,
2013-03-06 00:50:00,28.1,24.5,29.81,WSW,256,11.5,11.5,86,0.00,-SN,,0.00,WeatherDisplay:10.37,2013-03-06 05:50:00,
2013-03-06 00:55:00,28.1,24.5,29.81,WNW,296,8.1,8.1,86,0.00,-SN,,0.00,WeatherDisplay:10.37,2013-03-06 05:55:00,
2013-03-06 01:00:00,28.0,24.4,29.81,NNW,328,12.7,12.7,86,0.00,-SN,,0.00,WeatherDisplay:10.37,2013-03-06 06:00:00,
2013-03-06 01:05:00,27.9,24.3,29.81,West,268,11.5,11.5,86,0.00,-SN,,0.00,WeatherDisplay:10.37,2013-03-06 06:05:00,
2013-03-06 01:10:00,27.8,24.2,29.81,West,261,7.0,7.0,86,0.00,-SN,,0.00,WeatherDisplay:10.37,2013-03-06 06:10:00,
2013-03-06 01:15:00,27.8,24.2,29.81,WSW,249,12.7,12.7,86,0.00,-SN,,0.00,WeatherDisplay:10.37,2013-03-06 06:15:00,
2013-03-06 01:20:00,27.8,24.2,29.81,NW,311,11.5,11.5,86,0.00,-SN,,0.00,WeatherDisplay:10.37,2013-03-06 06:20:00,
2013-03-06 01:25:00,27.7,24.1,29.81,West,268,15.0,15.0,86,0.00,-SN,,0.00,WeatherDisplay:10.37,2013-03-06 06:25:00,
2013-03-06 01:30:00,27.7,24.1,29.81,West,259,8.1,8.1,86,0.00,-SN,,0.00,WeatherDisplay:10.37,2013-03-06 06:30:00,
2013-03-06 01:35:00,27.7,24.1,29.81,SW,226,11.0,11.0,86,0.00,-SN,,0.00,WeatherDisplay:10.37,2013-03-06 06:35:00,
2013-03-06 01:40:00,27.8,24.4,29.81,WNW,291,13.0,13.0,87,0.00,-SN,,0.00,WeatherDisplay:10.37,2013-03-06 06:40:00,
2013-03-06 01:45:00,27.8,24.4,29.81,WSW,257,11.5,11.5,87,0.00,-SN,,0.00,WeatherDisplay:10.37,2013-03-06 06:45:00,
2013-03-06 01:50:00,27.8,24.4,29.81,NW,313,6.0,6.0,87,0.00,-SN,,0.00,WeatherDisplay:10.37,2013-03-06 06:50:00,
2013-03-06 01:56:00,27.8,24.4,29.81,WSW,256,16.0,16.0,87,0.00,-SN,,0.00,WeatherDisplay:10.37,2013-03-06 06:56:00,
2013-03-06 02:01:00,27.8,24.4,29.81,WNW,295,16.0,16.0,87,0.00,-SN,,0.00,WeatherDisplay:10.37,2013-03-06 07:01:00,
2013-03-06 02:06:00,27.8,24.4,29.81,West,279,6.0,6.0,87,0.00,-SN,,0.00,WeatherDisplay:10.37,2013-03-06 07:06:00,
2013-03-06 02:11:00,27.8,24.4,29.81,WNW,287,6.9,6.9,87,0.00,-SN,,0.00,WeatherDisplay:10.37,2013-03-06 07:11:00,
2013-03-06 02:16:00,27.8,24.4,29.81,NW,318,10.0,10.0,87,0.00,-SN,,0.00,WeatherDisplay:10.37,2013-03-06 07:16:00,
2013-03-06 02:21:00,27.8,24.4,29.81,NNW,339,10.4,10.4,87,0.00,-SN,,0.00,WeatherDisplay:10.37,2013-03-06 07:21:00,
2013-03-06 02:26:00,27.9,24.5,29.81,NW,317,10.4,10.4,87,0.00,-SN,,0.00,WeatherDisplay:10.37,2013-03-06 07:26:00,
2013-03-06 02:31:00,27.9,24.5,29.81,WSW,253,10.4,10.4,87,0.00,-SN,,0.00,WeatherDisplay:10.37,2013-03-06 07:31:00,
2013-03-06 02:36:00,27.9,24.5,29.81,West,259,8.1,8.1,87,0.00,-SN,,0.00,WeatherDisplay:10.37,2013-03-06 07:36:00,
2013-03-06 02:41:00,27.9,24.5,29.81,WNW,295,11.5,11.5,87,0.00,-SN,,0.00,WeatherDisplay:10.37,2013-03-06 07:41:00,
2013-03-06 02:46:00,27.9,24.5,29.81,NW,318,8.0,8.0,87,0.00,-SN,,0.00,WeatherDisplay:10.37,2013-03-06 07:46:00,
2013-03-06 02:51:00,28.0,24.6,29.81,West,279,12.0,12.0,87,0.00,-SN,,0.00,WeatherDisplay:10.37,2013-03-06 07:51:00,
2013-03-06 02:56:00,28.0,24.6,29.81,WNW,301,7.0,7.0,87,0.00,-SN,,0.00,WeatherDisplay:10.37,2013-03-06 07:56:00,
2013-03-06 03:01:00,28.0,24.6,29.81,WSW,253,9.2,9.2,87,0.00,-SN,,0.00,WeatherDisplay:10.37,2013-03-06 08:01:00,
2013-03-06 03:06:00,28.0,24.6,29.81,WSW,253,11.5,11.5,87,0.00,-SN,,0.00,WeatherDisplay:10.37,2013-03-06 08:06:00,
2013-03-06 03:11:00,28.0,24.6,29.81,West,268,12.7,12.7,87,0.00,-SN,,0.00,WeatherDisplay:10.37,2013-03-06 08:11:00,
2013-03-06 03:16:00,28.1,24.7,29.81,West,270,8.1,8.1,87,0.00,-SN,,0.00,WeatherDisplay:10.37,2013-03-06 08:16:00,
2013-03-06 03:21:00,28.1,24.7,29.81,WNW,283,9.0,9.0,87,0.00,-SN,,0.00,WeatherDisplay:10.37,2013-03-06 08:21:00,
2013-03-06 03:26:00,28.1,24.7,29.81,West,278,10.0,10.0,87,0.00,-SN,,0.00,WeatherDisplay:10.37,2013-03-06 08:26:00,
2013-03-06 03:31:00,28.2,24.8,29.81,WSW,253,8.1,8.1,87,0.00,-SN,,0.00,WeatherDisplay:10.37,2013-03-06 08:31:00,
2013-03-06 03:36:00,28.2,24.8,29.81,SW,226,9.2,9.2,87,0.00,-SN,,0.00,WeatherDisplay:10.37,2013-03-06 08:36:00,
2013-03-06 03:41:00,28.2,24.8,29.81,NW,313,10.4,10.4,87,0.00,-SN,,0.00,WeatherDisplay:10.37,2013-03-06 08:41:00,
2013-03-06 03:46:00,28.3,24.9,29.81,West,263,11.5,11.5,87,0.00,-SN,,0.00,WeatherDisplay:10.37,2013-03-06 08:46:00,
2013-03-06 03:51:00,28.3,24.9,29.81,West,262,11.5,11.5,87,0.00,-SN,,0.00,WeatherDisplay:10.37,2013-03-06 08:51:00,
2013-03-06 03:56:00,28.3,24.9,29.81,West,272,9.0,9.0,87,0.00,-SN,,0.00,WeatherDisplay:10.37,2013-03-06 08:56:00,
2013-03-06 04:01:00,28.3,24.9,29.81,NW,310,10.4,10.4,87,0.00,-SN,,0.00,WeatherDisplay:10.37,2013-03-06 09:01:00,
2013-03-06 04:06:00,28.3,24.9,29.81,NNW,328,7.0,7.0,87,0.00,-SN,,0.00,WeatherDisplay:10.37,2013-03-06 09:06:00,
2013-03-06 04:11:00,28.3,24.9,29.81,NW,304,7.0,7.0,87,0.00,-SN,,0.00,WeatherDisplay:10.37,2013-03-06 09:11:00,
2013-03-06 04:16:00,28.4,25.0,29.82,NNW,344,10.4,10.4,87,0.00,-SN,,0.00,WeatherDisplay:10.37,2013-03-06 09:16:00,
2013-03-06 04:21:00,28.4,25.0,29.82,West,272,12.0,12.0,87,0.00,-SN,,0.00,WeatherDisplay:10.37,2013-03-06 09:21:00,
2013-03-06 04:26:00,28.4,25.0,29.82,NW,320,6.0,6.0,87,0.00,-SN,,0.00,WeatherDisplay:10.37,2013-03-06 09:26:00,
2013-03-06 04:31:00,28.5,25.1,29.82,West,278,11.5,11.5,87,0.00,-SN,,0.00,WeatherDisplay:10.37,2013-03-06 09:31:00,
2013-03-06 04:36:00,28.5,25.1,29.83,WNW,293,8.1,8.1,87,0.00,-SN,,0.00,WeatherDisplay:10.37,2013-03-06 09:36:00,
2013-03-06 04:41:00,28.5,25.1,29.83,West,280,10.4,10.4,87,0.00,-SN,,0.00,WeatherDisplay:10.37,2013-03-06 09:41:00,
2013-03-06 04:46:00,28.6,25.2,29.83,West,272,8.0,8.0,87,0.00,-SN,,0.00,WeatherDisplay:10.37,2013-03-06 09:46:00,
2013-03-06 04:51:00,28.6,25.2,29.83,NW,309,10.4,10.4,87,0.00,-SN,,0.00,WeatherDisplay:10.37,2013-03-06 09:51:00,
2013-03-06 04:56:00,28.7,25.6,29.84,North,2,8.1,8.1,88,0.00,-SN,,0.00,WeatherDisplay:10.37,2013-03-06 09:56:00,
2013-03-06 05:01:00,28.7,25.6,29.84,NNE,16,9.2,9.2,88,0.00,-SN,,0.00,WeatherDisplay:10.37,2013-03-06 10:01:00,
2013-03-06 05:06:00,28.7,25.3,29.84,NW,322,11.5,11.5,87,0.00,-SN,,0.00,WeatherDisplay:10.37,2013-03-06 10:06:00,
2013-03-06 05:11:00,28.7,25.3,29.84,North,7,9.0,9.0,87,0.00,-SN,,0.00,WeatherDisplay:10.37,2013-03-06 10:11:00,
2013-03-06 05:16:00,28.7,25.3,29.85,North,2,12.0,12.0,87,0.00,-SN,,0.00,WeatherDisplay:10.37,2013-03-06 10:16:00,
2013-03-06 05:21:00,28.8,25.4,29.85,NNW,338,8.1,8.1,87,0.00,-SN,,0.00,WeatherDisplay:10.37,2013-03-06 10:21:00,
2013-03-06 05:26:00,28.8,25.4,29.86,NW,318,7.0,7.0,87,0.00,-SN,,0.00,WeatherDisplay:10.37,2013-03-06 10:26:00,
2013-03-06 05:31:00,28.8,25.4,29.86,NNE,12,12.7,12.7,87,0.00,-SN,,0.00,WeatherDisplay:10.37,2013-03-06 10:31:00,
2013-03-06 05:36:00,28.8,25.4,29.86,NW,317,8.1,8.1,87,0.00,-SN,,0.00,WeatherDisplay:10.37,2013-03-06 10:36:00,
2013-03-06 05:41:00,28.8,25.1,29.87,NNW,344,13.0,13.0,86,0.00,-SN,,0.00,WeatherDisplay:10.37,2013-03-06 10:41:00,
2013-03-06 05:46:00,28.9,25.2,29.87,NNE,20,11.0,11.0,86,0.00,-SN,,0.00,WeatherDisplay:10.37,2013-03-06 10:46:00,
2013-03-06 05:51:00,28.8,25.1,29.87,North,355,11.5,11.5,86,0.00,-SN,,0.00,WeatherDisplay:10.37,2013-03-06 10:51:00,
2013-03-06 05:56:00,28.9,25.2,29.88,NE,56,7.0,7.0,86,0.00,-SN,,0.00,WeatherDisplay:10.37,2013-03-06 10:56:00,
2013-03-06 06:01:00,28.9,25.2,29.88,North,7,9.2,9.2,86,0.00,-SN,,0.00,WeatherDisplay:10.37,2013-03-06 11:01:00,
2013-03-06 06:06:00,28.8,25.1,29.88,WNW,284,11.0,11.0,86,0.00,OVC,,0.00,WeatherDisplay:10.37,2013-03-06 11:06:00,
2013-03-06 06:11:00,28.8,25.1,29.89,North,2,9.2,9.2,86,0.00,OVC,,0.00,WeatherDisplay:10.37,2013-03-06 11:11:00,
2013-03-06 06:16:00,28.8,25.1,29.89,North,2,10.0,10.0,86,0.00,OVC,,0.00,WeatherDisplay:10.37,2013-03-06 11:16:00,
2013-03-06 06:21:00,28.8,25.1,29.89,WNW,299,10.0,10.0,86,0.00,OVC,,0.00,WeatherDisplay:10.37,2013-03-06 11:21:00,
2013-03-06 06:26:00,28.8,25.1,29.90,WNW,293,10.4,10.4,86,0.00,OVC,,0.00,WeatherDisplay:10.37,2013-03-06 11:26:00,
2013-03-06 06:31:00,28.8,25.1,29.91,North,7,11.5,11.5,86,0.00,OVC,,0.00,WeatherDisplay:10.37,2013-03-06 11:31:00,
2013-03-06 06:36:00,28.8,25.1,29.91,North,7,7.0,7.0,86,0.00,OVC,,0.00,WeatherDisplay:10.37,2013-03-06 11:36:00,
2013-03-06 06:41:00,28.8,25.4,29.91,NW,316,10.4,10.4,87,0.00,OVC,,0.00,WeatherDisplay:10.37,2013-03-06 11:41:00,
2013-03-06 06:46:00,28.8,25.4,29.92,West,278,8.1,8.1,87,0.00,OVC,,0.00,WeatherDisplay:10.37,2013-03-06 11:46:00,
2013-03-06 06:51:00,28.8,25.4,29.92,North,7,8.1,8.1,87,0.00,OVC,,0.00,WeatherDisplay:10.37,2013-03-06 11:51:00,
2013-03-06 06:56:00,28.8,25.4,29.93,North,7,11.0,11.0,87,0.00,OVC,,0.00,WeatherDisplay:10.37,2013-03-06 11:56:00,
2013-03-06 07:01:00,28.8,25.4,29.93,NNE,18,10.4,10.4,87,0.00,OVC,,0.00,WeatherDisplay:10.37,2013-03-06 12:01:00,
2013-03-06 07:06:00,28.8,25.4,29.93,NW,326,9.2,9.2,87,0.00,-SN,,0.00,WeatherDisplay:10.37,2013-03-06 12:06:00,
2013-03-06 07:11:00,28.8,25.4,29.93,NNW,329,8.1,8.1,87,0.00,-SN,,0.00,WeatherDisplay:10.37,2013-03-06 12:11:00,
2013-03-06 07:16:00,28.8,25.4,29.94,NW,326,6.0,6.0,87,0.00,-SN,,0.00,WeatherDisplay:10.37,2013-03-06 12:16:00,
2013-03-06 07:21:00,28.8,25.4,29.94,North,7,10.4,10.4,87,0.00,-SN,,0.00,WeatherDisplay:10.37,2013-03-06 12:21:00,
2013-03-06 07:26:00,28.8,25.4,29.95,NNW,337,7.0,7.0,87,0.00,-SN,,0.00,WeatherDisplay:10.37,2013-03-06 12:26:00,
2013-03-06 07:31:00,28.8,25.4,29.95,NW,321,8.0,8.0,87,0.00,-SN,,0.00,WeatherDisplay:10.37,2013-03-06 12:31:00,
2013-03-06 07:36:00,28.7,25.3,29.95,NW,322,9.2,9.2,87,0.00,-SN,,0.00,WeatherDisplay:10.37,2013-03-06 12:36:00,
2013-03-06 07:41:00,28.7,25.3,29.96,North,2,5.0,5.0,87,0.00,-SN,,0.00,WeatherDisplay:10.37,2013-03-06 12:41:00,
2013-03-06 07:46:00,28.7,25.3,29.96,NNW,342,6.9,6.9,87,0.00,-SN,,0.00,WeatherDisplay:10.37,2013-03-06 12:46:00,
2013-03-06 07:51:00,28.6,25.5,29.97,West,264,5.0,5.0,88,0.00,-SN,,0.00,WeatherDisplay:10.37,2013-03-06 12:51:00,
2013-03-06 07:56:00,28.5,25.1,29.98,NNW,333,9.2,9.2,87,0.00,-SN,,0.00,WeatherDisplay:10.37,2013-03-06 12:56:00,
2013-03-06 08:01:00,28.4,25.0,29.98,North,357,8.0,8.0,87,0.00,-SN,,0.00,WeatherDisplay:10.37,2013-03-06 13:01:00,
2013-03-06 08:06:00,28.3,24.9,29.98,NNW,348,10.0,10.0,87,0.00,-SN,,0.00,WeatherDisplay:10.37,2013-03-06 13:06:00,
2013-03-06 08:11:00,28.3,24.9,29.99,NNW,341,6.9,6.9,87,0.00,-SN,,0.00,WeatherDisplay:10.37,2013-03-06 13:11:00,
2013-03-06 08:16:00,28.3,24.9,30.00,NNW,328,13.0,13.0,87,0.00,-SN,,0.00,WeatherDisplay:10.37,2013-03-06 13:16:00,
2013-03-06 08:21:00,28.3,24.9,30.00,NNE,26,10.4,10.4,87,0.00,-SN,,0.00,WeatherDisplay:10.37,2013-03-06 13:21:00,
2013-03-06 08:26:00,28.3,24.6,30.01,NNW,343,9.0,9.0,86,0.00,-SN,,0.00,WeatherDisplay:10.37,2013-03-06 13:26:00,
2013-03-06 08:31:00,28.3,24.6,30.01,NNW,343,13.0,13.0,86,0.00,-SN,,0.00,WeatherDisplay:10.37,2013-03-06 13:31:00,
2013-03-06 08:36:00,28.2,24.6,30.02,NNW,344,14.0,14.0,86,0.00,-SN,,0.00,WeatherDisplay:10.37,2013-03-06 13:36:00,
2013-03-06 08:41:00,28.2,24.6,30.02,NNE,12,12.7,12.7,86,0.00,-SN,,0.00,WeatherDisplay:10.37,2013-03-06 13:41:00,
2013-03-06 08:46:00,28.2,24.6,30.03,North,351,13.0,13.0,86,0.00,-SN,,0.00,WeatherDisplay:10.37,2013-03-06 13:46:00,
2013-03-06 08:51:00,28.1,24.5,30.03,North,7,15.0,15.0,86,0.00,-SN,,0.00,WeatherDisplay:10.37,2013-03-06 13:51:00,
2013-03-06 08:56:00,28.1,24.2,30.04,NNW,333,12.0,12.0,85,0.00,-SN,,0.00,WeatherDisplay:10.37,2013-03-06 13:56:00,
2013-03-06 09:01:00,28.2,24.3,30.04,NNE,16,13.8,13.8,85,0.00,OVC,,0.00,WeatherDisplay:10.37,2013-03-06 14:01:00,
2013-03-06 09:07:00,28.2,24.3,30.05,North,352,10.4,10.4,85,0.00,OVC,,0.00,WeatherDisplay:10.37,2013-03-06 14:07:00,
2013-03-06 09:12:00,28.1,24.2,30.05,North,2,12.0,12.0,85,0.00,OVC,,0.00,WeatherDisplay:10.37,2013-03-06 14:12:00,
2013-03-06 09:17:00,28.1,24.2,30.06,North,7,11.5,11.5,85,0.00,OVC,,0.00,WeatherDisplay:10.37,2013-03-06 14:17:00,
2013-03-06 09:22:00,28.0,24.1,30.06,NW,314,12.0,12.0,85,0.00,OVC,,0.00,WeatherDisplay:10.37,2013-03-06 14:22:00,
2013-03-06 09:27:00,28.1,24.2,30.06,North,356,10.4,10.4,85,0.00,OVC,,0.00,WeatherDisplay:10.37,2013-03-06 14:27:00,
2013-03-06 09:32:00,28.1,24.5,30.07,North,7,14.0,14.0,86,0.00,OVC,,0.00,WeatherDisplay:10.37,2013-03-06 14:32:00,
2013-03-06 09:37:00,28.0,24.4,30.07,North,357,10.4,10.4,86,0.00,OVC,,0.00,WeatherDisplay:10.37,2013-03-06 14:37:00,
2013-03-06 09:42:00,27.9,24.3,30.07,NNE,16,14.0,14.0,86,0.00,OVC,,0.00,WeatherDisplay:10.37,2013-03-06 14:42:00,
2013-03-06 09:47:00,27.9,24.3,30.08,North,349,9.0,9.0,86,0.00,OVC,,0.00,WeatherDisplay:10.37,2013-03-06 14:47:00,
2013-03-06 09:52:00,28.0,24.4,30.08,WNW,293,15.0,15.0,86,0.00,OVC,,0.00,WeatherDisplay:10.37,2013-03-06 14:52:00,
2013-03-06 09:57:00,28.0,24.4,30.08,NNW,345,11.5,11.5,86,0.00,OVC,,0.00,WeatherDisplay:10.37,2013-03-06 14:57:00,
2013-03-06 10:02:00,28.0,24.4,30.09,North,356,6.0,6.0,86,0.00,-SN,,0.00,WeatherDisplay:10.37,2013-03-06 15:02:00,
2013-03-06 10:07:00,28.1,24.5,30.09,NW,316,9.2,9.2,86,0.00,-SN,,0.00,WeatherDisplay:10.37,2013-03-06 15:07:00,
2013-03-06 10:12:00,28.1,24.5,30.09,NNE,18,12.0,12.0,86,0.00,-SN,,0.00,WeatherDisplay:10.37,2013-03-06 15:12:00,
2013-03-06 10:17:00,28.1,24.5,30.09,North,2,11.5,11.5,86,0.00,-SN,,0.00,WeatherDisplay:10.37,2013-03-06 15:17:00,
2013-03-06 10:22:00,28.2,24.3,30.10,North,7,8.1,8.1,85,0.00,-SN,,0.00,WeatherDisplay:10.37,2013-03-06 15:22:00,
2013-03-06 10:27:00,28.3,24.4,30.11,NNW,332,6.0,6.0,85,0.00,-SN,,0.00,WeatherDisplay:10.37,2013-03-06 15:27:00,
2013-03-06 10:32:00,28.3,24.4,30.11,North,352,13.0,13.0,85,0.00,-SN,,0.00,WeatherDisplay:10.37,2013-03-06 15:32:00,
2013-03-06 10:37:00,28.3,24.4,30.11,NNE,12,8.1,8.1,85,0.00,-SN,,0.00,WeatherDisplay:10.37,2013-03-06 15:37:00,
2013-03-06 10:42:00,28.4,24.5,30.12,North,7,9.0,9.0,85,0.00,-SN,,0.00,WeatherDisplay:10.37,2013-03-06 15:42:00,
2013-03-06 10:47:00,28.4,24.5,30.12,NE,44,9.2,9.2,85,0.00,-SN,,0.00,WeatherDisplay:10.37,2013-03-06 15:47:00,
2013-03-06 10:52:00,28.4,24.5,30.12,North,355,12.7,12.7,85,0.00,-SN,,0.00,WeatherDisplay:10.37,2013-03-06 15:52:00,
2013-03-06 10:57:00,28.4,24.2,30.13,NNW,336,8.1,8.1,84,0.00,-SN,,0.00,WeatherDisplay:10.37,2013-03-06 15:57:00,
2013-03-06 11:02:00,28.5,24.3,30.13,NNE,25,10.0,10.0,84,0.00,OVC,,0.00,WeatherDisplay:10.37,2013-03-06 16:02:00,
2013-03-06 11:07:00,28.5,24.3,30.13,NNE,23,9.2,9.2,84,0.00,OVC,,0.00,WeatherDisplay:10.37,2013-03-06 16:07:00,
2013-03-06 11:12:00,28.6,24.4,30.14,NNW,340,6.9,6.9,84,0.00,OVC,,0.00,WeatherDisplay:10.37,2013-03-06 16:12:00,
2013-03-06 11:17:00,28.6,24.4,30.14,North,7,6.0,6.0,84,0.00,OVC,,0.00,WeatherDisplay:10.37,2013-03-06 16:17:00,
2013-03-06 11:22:00,28.6,24.4,30.15,NW,325,7.0,7.0,84,0.00,OVC,,0.00,WeatherDisplay:10.37,2013-03-06 16:22:00,
2013-03-06 11:27:00,28.7,24.5,30.15,NNW,330,7.0,7.0,84,0.00,OVC,,0.00,WeatherDisplay:10.37,2013-03-06 16:27:00,
2013-03-06 11:32:00,28.7,24.2,30.15,NNW,332,4.0,4.0,83,0.00,OVC,,0.00,WeatherDisplay:10.37,2013-03-06 16:32:00,
2013-03-06 11:37:00,28.7,24.2,30.15,NW,326,12.0,12.0,83,0.00,OVC,,0.00,WeatherDisplay:10.37,2013-03-06 16:37:00,
2013-03-06 11:42:00,28.8,24.6,30.15,NNE,16,12.0,12.0,84,0.00,OVC,,0.00,WeatherDisplay:10.37,2013-03-06 16:42:00,
2013-03-06 11:48:00,28.8,24.3,30.16,North,349,11.5,11.5,83,0.00,OVC,,0.00,WeatherDisplay:10.37,2013-03-06 16:48:00,
2013-03-06 11:53:00,28.8,24.3,30.16,NNW,328,10.4,10.4,83,0.00,OVC,,0.00,WeatherDisplay:10.37,2013-03-06 16:53:00,
2013-03-06 11:58:00,28.8,24.3,30.16,NW,320,7.0,7.0,83,0.00,OVC,,0.00,WeatherDisplay:10.37,2013-03-06 16:58:00,
2013-03-06 12:03:00,28.8,24.3,30.17,North,351,15.0,15.0,83,0.00,OVC,,0.00,WeatherDisplay:10.37,2013-03-06 17:03:00,
2013-03-06 12:08:00,28.9,24.4,30.17,NNE,29,11.0,11.0,83,0.00,OVC,,0.00,WeatherDisplay:10.37,2013-03-06 17:08:00,
2013-03-06 12:13:00,28.9,24.4,30.17,NNE,20,15.0,15.0,83,0.00,OVC,,0.00,WeatherDisplay:10.37,2013-03-06 17:13:00,
2013-03-06 12:18:00,29.1,24.9,30.17,NNW,347,8.1,8.1,84,0.00,OVC,,0.00,WeatherDisplay:10.37,2013-03-06 17:18:00,
2013-03-06 12:23:00,29.1,24.9,30.18,NNW,337,11.5,11.5,84,0.00,OVC,,0.00,WeatherDisplay:10.37,2013-03-06 17:23:00,
2013-03-06 12:28:00,29.1,24.6,30.18,NNW,345,4.0,4.0,83,0.00,OVC,,0.00,WeatherDisplay:10.37,2013-03-06 17:28:00,
2013-03-06 12:33:00,29.1,24.6,30.18,North,7,11.5,11.5,83,0.00,OVC,,0.00,WeatherDisplay:10.37,2013-03-06 17:33:00,
2013-03-06 12:38:00,29.2,24.7,30.18,NNW,341,10.0,10.0,83,0.00,OVC,,0.00,WeatherDisplay:10.37,2013-03-06 17:38:00,
2013-03-06 12:43:00,29.3,24.8,30.18,North,356,5.0,5.0,83,0.00,OVC,,0.00,WeatherDisplay:10.37,2013-03-06 17:43:00,
2013-03-06 12:48:00,29.3,24.8,30.18,North,7,10.0,10.0,83,0.00,OVC,,0.00,WeatherDisplay:10.37,2013-03-06 17:48:00,
2013-03-06 12:53:00,29.4,24.9,30.18,NW,322,10.4,10.4,83,0.00,OVC,,0.00,WeatherDisplay:10.37,2013-03-06 17:53:00,
2013-03-06 12:58:00,29.4,24.9,30.19,North,349,9.0,9.0,83,0.00,OVC,,0.00,WeatherDisplay:10.37,2013-03-06 17:58:00,
2013-03-06 13:03:00,29.4,24.9,30.19,NNW,338,12.0,12.0,83,0.00,OVC,,0.00,WeatherDisplay:10.37,2013-03-06 18:03:00,
2013-03-06 13:08:00,29.4,24.9,30.19,NNW,345,11.5,11.5,83,0.00,OVC,,0.00,WeatherDisplay:10.37,2013-03-06 18:08:00,
2013-03-06 13:13:00,29.6,25.1,30.19,NW,316,4.0,4.0,83,0.00,OVC,,0.00,WeatherDisplay:10.37,2013-03-06 18:13:00,
2013-03-06 13:18:00,29.6,25.1,30.19,North,349,12.7,12.7,83,0.00,OVC,,0.00,WeatherDisplay:10.37,2013-03-06 18:18:00,
2013-03-06 13:23:00,29.7,25.2,30.19,North,7,11.0,11.0,83,0.00,OVC,,0.00,WeatherDisplay:10.37,2013-03-06 18:23:00,
2013-03-06 13:28:00,29.7,25.2,30.19,North,7,8.1,8.1,83,0.00,OVC,,0.00,WeatherDisplay:10.37,2013-03-06 18:28:00,
2013-03-06 13:33:00,29.7,25.2,30.19,North,355,10.4,10.4,83,0.00,OVC,,0.00,WeatherDisplay:10.37,2013-03-06 18:33:00,
2013-03-06 13:38:00,29.8,25.3,30.19,North,357,11.5,11.5,83,0.00,OVC,,0.00,WeatherDisplay:10.37,2013-03-06 18:38:00,
2013-03-06 13:43:00,29.8,25.3,30.19,NNW,337,6.9,6.9,83,0.00,OVC,,0.00,WeatherDisplay:10.37,2013-03-06 18:43:00,
2013-03-06 13:48:00,29.9,25.4,30.18,NNE,16,8.1,8.1,83,0.00,OVC,,0.00,WeatherDisplay:10.37,2013-03-06 18:48:00,
2013-03-06 13:53:00,29.9,25.4,30.18,NNW,344,10.4,10.4,83,0.00,OVC,,0.00,WeatherDisplay:10.37,2013-03-06 18:53:00,
2013-03-06 13:58:00,30.0,25.2,30.19,North,2,9.2,9.2,82,0.00,OVC,,0.00,WeatherDisplay:10.37,2013-03-06 18:58:00,
2013-03-06 14:03:00,30.1,25.6,30.19,North,7,8.1,8.1,83,0.00,OVC,,0.00,WeatherDisplay:10.37,2013-03-06 19:03:00,
2013-03-06 14:08:00,30.2,25.7,30.19,NNW,329,11.0,11.0,83,0.00,OVC,,0.00,WeatherDisplay:10.37,2013-03-06 19:08:00,
2013-03-06 14:13:00,30.2,25.4,30.19,NNW,346,10.4,10.4,82,0.00,OVC,,0.00,WeatherDisplay:10.37,2013-03-06 19:13:00,
2013-03-06 14:18:00,30.3,25.5,30.19,North,349,8.0,8.0,82,0.00,OVC,,0.00,WeatherDisplay:10.37,2013-03-06 19:18:00,
2013-03-06 14:23:00,30.4,25.6,30.19,North,7,8.1,8.1,82,0.00,OVC,,0.00,WeatherDisplay:10.37,2013-03-06 19:23:00,
2013-03-06 14:28:00,30.3,25.5,30.20,NW,325,9.2,9.2,82,0.00,OVC,,0.00,WeatherDisplay:10.37,2013-03-06 19:28:00,
2013-03-06 14:33:00,30.3,25.5,30.20,NNW,330,8.1,8.1,82,0.00,OVC,,0.00,WeatherDisplay:10.37,2013-03-06 19:33:00,
2013-03-06 14:38:00,30.4,25.6,30.20,North,352,10.4,10.4,82,0.00,OVC,,0.00,WeatherDisplay:10.37,2013-03-06 19:38:00,
2013-03-06 14:43:00,30.5,25.7,30.20,NNW,337,6.0,6.0,82,0.00,OVC,,0.00,WeatherDisplay:10.37,2013-03-06 19:43:00,
2013-03-06 14:48:00,30.6,25.8,30.20,NW,316,6.0,6.0,82,0.00,OVC,,0.00,WeatherDisplay:10.37,2013-03-06 19:48:00,
2013-03-06 14:53:00,30.7,25.9,30.21,North,353,5.0,5.0,82,0.00,OVC,,0.00,WeatherDisplay:10.37,2013-03-06 19:53:00,
2013-03-06 14:58:00,30.6,25.8,30.21,North,2,8.0,8.0,82,0.00,OVC,,0.00,WeatherDisplay:10.37,2013-03-06 19:58:00,
2013-03-06 15:03:00,30.6,25.8,30.22,NNW,345,5.0,5.0,82,0.00,OVC,,0.00,WeatherDisplay:10.37,2013-03-06 20:03:00,
2013-03-06 15:08:00,30.6,25.8,30.21,NNE,12,7.0,7.0,82,0.00,OVC,,0.00,WeatherDisplay:10.37,2013-03-06 20:08:00,
2013-03-06 15:13:00,30.7,25.9,30.22,NNW,343,5.0,5.0,82,0.00,OVC,,0.00,WeatherDisplay:10.37,2013-03-06 20:13:00,
2013-03-06 15:18:00,30.7,25.9,30.22,North,2,9.2,9.2,82,0.00,OVC,,0.00,WeatherDisplay:10.37,2013-03-06 20:18:00,
2013-03-06 15:23:00,30.8,26.0,30.22,North,355,8.1,8.1,82,0.00,OVC,,0.00,WeatherDisplay:10.37,2013-03-06 20:23:00,
2013-03-06 15:28:00,30.7,25.9,30.22,North,2,5.8,5.8,82,0.00,OVC,,0.00,WeatherDisplay:10.37,2013-03-06 20:28:00,
2013-03-06 15:33:00,30.7,25.9,30.22,NW,313,6.0,6.0,82,0.00,OVC,,0.00,WeatherDisplay:10.37,2013-03-06 20:33:00,
2013-03-06 15:38:00,30.7,25.9,30.23,North,7,8.1,8.1,82,0.00,OVC,,0.00,WeatherDisplay:10.37,2013-03-06 20:38:00,
2013-03-06 15:43:00,30.6,25.8,30.23,NW,316,7.0,7.0,82,0.00,OVC,,0.00,WeatherDisplay:10.37,2013-03-06 20:43:00,
2013-03-06 15:48:00,30.5,25.7,30.23,NNW,341,6.0,6.0,82,0.00,OVC,,0.00,WeatherDisplay:10.37,2013-03-06 20:48:00,
2013-03-06 15:53:00,30.4,25.6,30.23,NNW,334,5.8,5.8,82,0.00,OVC,,0.00,WeatherDisplay:10.37,2013-03-06 20:53:00,
2013-03-06 15:58:00,30.4,25.6,30.24,North,2,5.0,5.0,82,0.00,OVC,,0.00,WeatherDisplay:10.37,2013-03-06 20:58:00,
2013-03-06 16:03:00,30.4,25.6,30.24,North,357,7.0,7.0,82,0.00,OVC,,0.00,WeatherDisplay:10.37,2013-03-06 21:03:00,
2013-03-06 16:08:00,30.3,25.5,30.24,North,2,10.0,10.0,82,0.00,OVC,,0.00,WeatherDisplay:10.37,2013-03-06 21:08:00,
2013-03-06 16:13:00,30.4,25.6,30.24,North,7,7.0,7.0,82,0.00,OVC,,0.00,WeatherDisplay:10.37,2013-03-06 21:13:00,
2013-03-06 16:18:00,30.4,25.6,30.25,NW,310,7.0,7.0,82,0.00,OVC,,0.00,WeatherDisplay:10.37,2013-03-06 21:18:00,
2013-03-06 16:23:00,30.4,25.6,30.25,North,2,6.9,6.9,82,0.00,OVC,,0.00,WeatherDisplay:10.37,2013-03-06 21:23:00,
2013-03-06 16:28:00,30.3,25.5,30.25,North,2,6.9,6.9,82,0.00,OVC,,0.00,WeatherDisplay:10.37,2013-03-06 21:28:00,
2013-03-06 16:33:00,30.4,25.6,30.25,NNW,348,7.0,7.0,82,0.00,OVC,,0.00,WeatherDisplay:10.37,2013-03-06 21:33:00,
2013-03-06 16:38:00,30.5,25.7,30.26,NNW,330,4.0,4.0,82,0.00,OVC,,0.00,WeatherDisplay:10.37,2013-03-06 21:38:00,
2013-03-06 16:43:00,30.5,25.7,30.26,NNW,341,4.6,4.6,82,0.00,OVC,,0.00,WeatherDisplay:10.37,2013-03-06 21:43:00,
2013-03-06 16:48:00,30.6,25.8,30.26,NNE,24,11.5,11.5,82,0.00,OVC,,0.00,WeatherDisplay:10.37,2013-03-06 21:48:00,
2013-03-06 16:53:00,30.6,25.8,30.26,NW,307,7.0,7.0,82,0.00,OVC,,0.00,WeatherDisplay:10.37,2013-03-06 21:53:00,
2013-03-06 16:58:00,30.6,25.8,30.26,WNW,292,6.9,6.9,82,0.00,OVC,,0.00,WeatherDisplay:10.37,2013-03-06 21:58:00,
2013-03-06 17:03:00,30.6,25.8,30.26,North,2,6.0,6.0,82,0.00,OVC,,0.00,WeatherDisplay:10.37,2013-03-06 22:03:00,
2013-03-06 17:08:00,30.6,25.8,30.26,NNW,338,6.0,6.0,82,0.00,OVC,,0.00,WeatherDisplay:10.37,2013-03-06 22:08:00,
2013-03-06 17:13:00,30.6,25.8,30.26,NNE,21,6.0,6.0,82,0.00,OVC,,0.00,WeatherDisplay:10.37,2013-03-06 22:13:00,
2013-03-06 17:18:00,30.6,25.8,30.26,North,2,7.0,7.0,82,0.00,OVC,,0.00,WeatherDisplay:10.37,2013-03-06 22:18:00,
2013-03-06 17:23:00,30.6,25.5,30.26,NNE,18,8.1,8.1,81,0.00,OVC,,0.00,WeatherDisplay:10.37,2013-03-06 22:23:00,
2013-03-06 17:28:00,30.7,25.6,30.26,NW,318,6.0,6.0,81,0.00,OVC,,0.00,WeatherDisplay:10.37,2013-03-06 22:28:00,
2013-03-06 17:33:00,30.7,25.9,30.27,NNW,347,6.0,6.0,82,0.00,OVC,,0.00,WeatherDisplay:10.37,2013-03-06 22:33:00,
2013-03-06 17:38:00,30.7,25.9,30.27,NNW,336,5.0,5.0,82,0.00,OVC,,0.00,WeatherDisplay:10.37,2013-03-06 22:38:00,
2013-03-06 17:43:00,30.6,25.8,30.27,WNW,300,5.0,5.0,82,0.00,OVC,,0.00,WeatherDisplay:10.37,2013-03-06 22:43:00,
2013-03-06 17:48:00,30.6,25.8,30.27,North,357,6.0,6.0,82,0.00,OVC,,0.00,WeatherDisplay:10.37,2013-03-06 22:48:00,
2013-03-06 17:53:00,30.6,25.8,30.28,WNW,301,5.8,5.8,82,0.00,OVC,,0.00,WeatherDisplay:10.37,2013-03-06 22:53:00,
2013-03-06 17:58:00,30.6,25.8,30.28,NW,307,3.5,3.5,82,0.00,OVC,,0.00,WeatherDisplay:10.37,2013-03-06 22:58:00,
2013-03-06 18:03:00,30.6,26.1,30.28,NNE,18,6.0,6.0,83,0.00,OVC,,0.00,WeatherDisplay:10.37,2013-03-06 23:03:00,
2013-03-06 18:08:00,30.6,26.1,30.28,NNE,16,5.8,5.8,83,0.00,OVC,,0.00,WeatherDisplay:10.37,2013-03-06 23:08:00,
2013-03-06 18:13:00,30.6,26.1,30.28,NW,326,3.5,3.5,83,0.00,OVC,,0.00,WeatherDisplay:10.37,2013-03-06 23:13:00,
2013-03-06 18:18:00,30.6,26.1,30.29,NW,324,5.0,5.0,83,0.00,OVC,,0.00,WeatherDisplay:10.37,2013-03-06 23:18:00,
2013-03-06 18:23:00,30.6,26.1,30.29,NNW,330,4.0,4.0,83,0.00,OVC,,0.00,WeatherDisplay:10.37,2013-03-06 23:23:00,
2013-03-06 18:28:00,30.7,26.1,30.29,NNW,347,6.0,6.0,83,0.00,OVC,,0.00,WeatherDisplay:10.37,2013-03-06 23:28:00,
2013-03-06 18:33:00,30.7,26.1,30.30,NNW,339,6.0,6.0,83,0.00,OVC,,0.00,WeatherDisplay:10.37,2013-03-06 23:33:00,
2013-03-06 18:38:00,30.7,26.1,30.30,NNW,339,4.0,4.0,83,0.00,OVC,,0.00,WeatherDisplay:10.37,2013-03-06 23:38:00,
2013-03-06 18:43:00,30.7,26.1,30.30,NNW,341,5.0,5.0,83,0.00,OVC,,0.00,WeatherDisplay:10.37,2013-03-06 23:43:00,
2013-03-06 18:48:00,30.7,26.1,30.30,NNW,347,4.0,4.0,83,0.00,OVC,,0.00,WeatherDisplay:10.37,2013-03-06 23:48:00,
2013-03-06 18:53:00,30.7,26.1,30.30,NNW,345,2.3,2.3,83,0.00,OVC,,0.00,WeatherDisplay:10.37,2013-03-06 23:53:00,
2013-03-06 18:58:00,30.7,26.1,30.30,NNW,346,3.5,3.5,83,0.00,OVC,,0.00,WeatherDisplay:10.37,2013-03-06 23:58:00,
2013-03-06 19:03:00,30.7,26.1,30.31,North,356,5.0,5.0,83,0.00,OVC,,0.00,WeatherDisplay:10.37,2013-03-07 00:03:00,
2013-03-06 19:08:00,30.7,26.1,30.31,North,356,3.5,3.5,83,0.00,OVC,,0.00,WeatherDisplay:10.37,2013-03-07 00:08:00,
2013-03-06 19:13:00,30.7,26.1,30.30,North,356,2.3,2.3,83,0.00,OVC,,0.00,WeatherDisplay:10.37,2013-03-07 00:13:00,
2013-03-06 19:18:00,30.7,26.4,30.31,North,356,3.5,3.5,84,0.00,OVC,,0.00,WeatherDisplay:10.37,2013-03-07 00:18:00,
2013-03-06 19:23:00,30.7,26.4,30.31,North,350,5.0,5.0,84,0.00,OVC,,0.00,WeatherDisplay:10.37,2013-03-07 00:23:00,
2013-03-06 19:28:00,30.7,26.4,30.31,North,353,3.5,3.5,84,0.00,OVC,,0.00,WeatherDisplay:10.37,2013-03-07 00:28:00,
2013-03-06 19:33:00,30.7,26.4,30.31,NNW,348,5.0,5.0,84,0.00,OVC,,0.00,WeatherDisplay:10.37,2013-03-07 00:33:00,
2013-03-06 19:38:00,30.7,26.4,30.31,NNW,345,3.5,3.5,84,0.00,OVC,,0.00,WeatherDisplay:10.37,2013-03-07 00:38:00,
2013-03-06 19:43:00,30.7,26.4,30.31,North,355,5.0,5.0,84,0.00,OVC,,0.00,WeatherDisplay:10.37,2013-03-07 00:43:00,
2013-03-06 19:48:00,30.7,26.4,30.30,North,355,2.3,2.3,84,0.00,OVC,,0.00,WeatherDisplay:10.37,2013-03-07 00:48:00,
2013-03-06 19:53:00,30.7,26.4,30.31,North,355,3.5,3.5,84,0.00,OVC,,0.00,WeatherDisplay:10.37,2013-03-07 00:53:00,
2013-03-06 19:58:00,30.8,26.5,30.31,North,354,4.0,4.0,84,0.00,OVC,,0.00,WeatherDisplay:10.37,2013-03-07 00:58:00,
2013-03-06 20:03:00,30.8,26.5,30.31,North,355,4.0,4.0,84,0.00,OVC,,0.00,WeatherDisplay:10.37,2013-03-07 01:03:00,
2013-03-06 20:08:00,30.8,26.5,30.31,North,355,2.3,2.3,84,0.00,OVC,,0.00,WeatherDisplay:10.37,2013-03-07 01:08:00,
2013-03-06 20:13:00,30.8,26.5,30.31,North,355,3.5,3.5,84,0.00,OVC,,0.00,WeatherDisplay:10.37,2013-03-07 01:13:00,
2013-03-06 20:18:00,30.8,26.5,30.31,North,355,4.0,4.0,84,0.00,OVC,,0.00,WeatherDisplay:10.37,2013-03-07 01:18:00,
2013-03-06 20:23:00,30.8,26.5,30.32,North,355,2.3,2.3,84,0.00,OVC,,0.00,WeatherDisplay:10.37,2013-03-07 01:23:00,
2013-03-06 20:28:00,30.8,26.5,30.32,North,356,4.6,4.6,84,0.00,OVC,,0.00,WeatherDisplay:10.37,2013-03-07 01:28:00,
2013-03-06 20:33:00,30.8,26.5,30.32,NW,320,3.5,3.5,84,0.00,OVC,,0.00,WeatherDisplay:10.37,2013-03-07 01:33:00,
2013-03-06 20:38:00,30.8,26.5,30.32,NW,318,4.0,4.0,84,0.00,OVC,,0.00,WeatherDisplay:10.37,2013-03-07 01:38:00,
2013-03-06 20:43:00,30.8,26.5,30.32,North,351,6.0,6.0,84,0.00,OVC,,0.00,WeatherDisplay:10.37,2013-03-07 01:43:00,
2013-03-06 20:48:00,30.8,26.5,30.32,North,353,6.0,6.0,84,0.00,OVC,,0.00,WeatherDisplay:10.37,2013-03-07 01:48:00,
2013-03-06 20:53:00,30.8,26.5,30.32,NNW,348,5.0,5.0,84,0.00,OVC,,0.00,WeatherDisplay:10.37,2013-03-07 01:53:00,
2013-03-06 20:58:00,30.7,26.4,30.32,NW,313,4.0,4.0,84,0.00,OVC,,0.00,WeatherDisplay:10.37,2013-03-07 01:58:00,
2013-03-06 21:03:00,30.7,26.4,30.33,NNW,347,4.0,4.0,84,0.00,OVC,,0.00,WeatherDisplay:10.37,2013-03-07 02:03:00,
2013-03-06 21:08:00,30.7,26.4,30.33,NNW,348,5.0,5.0,84,0.00,OVC,,0.00,WeatherDisplay:10.37,2013-03-07 02:08:00,
2013-03-06 21:13:00,30.6,26.3,30.32,NNW,327,5.0,5.0,84,0.00,OVC,,0.00,WeatherDisplay:10.37,2013-03-07 02:13:00,
2013-03-06 21:18:00,30.6,26.3,30.32,NNW,332,3.5,3.5,84,0.00,OVC,,0.00,WeatherDisplay:10.37,2013-03-07 02:18:00,
2013-03-06 21:23:00,30.6,26.3,30.32,NNW,348,6.9,6.9,84,0.00,OVC,,0.00,WeatherDisplay:10.37,2013-03-07 02:23:00,
2013-03-06 21:28:00,30.6,26.1,30.33,NNW,341,9.2,9.2,83,0.00,OVC,,0.00,WeatherDisplay:10.37,2013-03-07 02:28:00,
2013-03-06 21:33:00,30.7,26.1,30.33,NNW,330,4.0,4.0,83,0.00,OVC,,0.00,WeatherDisplay:10.37,2013-03-07 02:33:00,
2013-03-06 21:38:00,30.7,26.1,30.33,NNE,29,11.5,11.5,83,0.00,OVC,,0.00,WeatherDisplay:10.37,2013-03-07 02:38:00,
2013-03-06 21:43:00,30.7,25.9,30.33,North,7,6.0,6.0,82,0.00,OVC,,0.00,WeatherDisplay:10.37,2013-03-07 02:43:00,
2013-03-06 21:48:00,30.7,25.9,30.33,West,275,9.0,9.0,82,0.00,OVC,,0.00,WeatherDisplay:10.37,2013-03-07 02:48:00,
2013-03-06 21:53:00,30.7,25.9,30.33,NNE,17,7.0,7.0,82,0.00,OVC,,0.00,WeatherDisplay:10.37,2013-03-07 02:53:00,
2013-03-06 21:58:00,30.8,25.7,30.33,North,7,6.0,6.0,81,0.00,OVC,,0.00,WeatherDisplay:10.37,2013-03-07 02:58:00,
2013-03-06 22:03:00,30.8,25.7,30.33,NNW,329,5.8,5.8,81,0.00,OVC,,0.00,WeatherDisplay:10.37,2013-03-07 03:03:00,
2013-03-06 22:08:00,30.8,25.7,30.33,NNW,333,5.0,5.0,81,0.00,OVC,,0.00,WeatherDisplay:10.37,2013-03-07 03:08:00,
2013-03-06 22:13:00,30.7,25.6,30.33,NNW,340,5.0,5.0,81,0.00,OVC,,0.00,WeatherDisplay:10.37,2013-03-07 03:13:00,
2013-03-06 22:18:00,30.7,25.6,30.33,NNW,347,2.3,2.3,81,0.00,OVC,,0.00,WeatherDisplay:10.37,2013-03-07 03:18:00,
2013-03-06 22:23:00,30.7,25.6,30.33,NNW,347,3.0,3.0,81,0.00,OVC,,0.00,WeatherDisplay:10.37,2013-03-07 03:23:00,
2013-03-06 22:28:00,30.7,25.6,30.33,NNW,348,3.5,3.5,81,0.00,OVC,,0.00,WeatherDisplay:10.37,2013-03-07 03:28:00,
2013-03-06 22:33:00,30.7,25.6,30.33,NNW,348,3.5,3.5,81,0.00,OVC,,0.00,WeatherDisplay:10.37,2013-03-07 03:33:00,
2013-03-06 22:38:00,30.6,25.5,30.33,NNE,19,3.0,3.0,81,0.00,OVC,,0.00,WeatherDisplay:10.37,2013-03-07 03:38:00,
2013-03-06 22:43:00,30.6,25.5,30.33,NNE,19,2.3,2.3,81,0.00,OVC,,0.00,WeatherDisplay:10.37,2013-03-07 03:43:00,
2013-03-06 22:48:00,30.6,25.5,30.34,NNE,18,4.0,4.0,81,0.00,OVC,,0.00,WeatherDisplay:10.37,2013-03-07 03:48:00,
2013-03-06 22:53:00,30.6,25.8,30.34,NNE,17,3.5,3.5,82,0.00,OVC,,0.00,WeatherDisplay:10.37,2013-03-07 03:53:00,
2013-03-06 22:58:00,30.6,25.8,30.34,North,355,3.5,3.5,82,0.00,OVC,,0.00,WeatherDisplay:10.37,2013-03-07 03:58:00,
2013-03-06 23:03:00,30.6,25.8,30.34,North,355,1.1,1.1,82,0.00,OVC,,0.00,WeatherDisplay:10.37,2013-03-07 04:03:00,
2013-03-06 23:08:00,30.6,25.8,30.34,NNW,346,4.6,4.6,82,0.00,OVC,,0.00,WeatherDisplay:10.37,2013-03-07 04:08:00,
2013-03-06 23:13:00,30.6,25.8,30.34,NNW,339,6.0,6.0,82,0.00,OVC,,0.00,WeatherDisplay:10.37,2013-03-07 04:13:00,
2013-03-06 23:18:00,30.6,25.8,30.34,NNE,12,6.0,6.0,82,0.00,OVC,,0.00,WeatherDisplay:10.37,2013-03-07 04:18:00,
2013-03-06 23:23:00,30.6,25.8,30.34,North,7,3.5,3.5,82,0.00,OVC,,0.00,WeatherDisplay:10.37,2013-03-07 04:23:00,
2013-03-06 23:28:00,30.5,25.7,30.33,North,7,5.0,5.0,82,0.00,OVC,,0.00,WeatherDisplay:10.37,2013-03-07 04:28:00,
2013-03-06 23:33:00,30.5,25.7,30.33,North,2,3.5,3.5,82,0.00,OVC,,0.00,WeatherDisplay:10.37,2013-03-07 04:33:00,
2013-03-06 23:38:00,30.4,25.6,30.33,North,353,1.1,0.0,82,0.00,OVC,,0.00,WeatherDisplay:10.37,2013-03-07 04:38:00,
2013-03-06 23:43:00,30.4,25.6,30.33,North,353,3.5,3.5,82,0.00,OVC,,0.00,WeatherDisplay:10.37,2013-03-07 04:43:00,
2013-03-06 23:48:00,30.4,25.6,30.33,North,353,3.5,3.5,82,0.00,OVC,,0.00,WeatherDisplay:10.37,2013-03-07 04:48:00,
2013-03-06 23:53:00,30.4,25.9,30.33,North,353,2.3,2.3,83,0.00,OVC,,0.00,WeatherDisplay:10.37,2013-03-07 04:53:00,
2013-03-06 23:58:00,30.4,25.9,30.33,North,353,3.5,3.5,83,0.00,OVC,,0.00,WeatherDisplay:10.37,2013-03-07 04:58:00,